Weather History for Marysville, OH

Change the Weather History Date:

Monday, January 7, 2013

  Actual Average (KDLZ) Record (KDLZ)
Temperature  
Mean Temperature 22 °F -  
Max Temperature 32 °F 34 °F 58 °F (1939)
Min Temperature 11 °F 19 °F -3 °F (1942)
Degree Days  
Heating Degree Days 44    
Moisture  
Dew Point 20 °F    
Average Humidity 83    
Maximum Humidity 94    
Minimum Humidity 65    
Precipitation  
Precipitation 0.00 in - - ()
Sea Level Pressure  
Sea Level Pressure 30.35 in    
Wind  
Wind Speed 7 mph (SW)    
Max Wind Speed 13 mph    
Max Gust Speed 18 mph    
Visibility 6 miles    
Events      
Averages and records for this station are not official NWS values.
T = Trace of Precipitation, MM = Missing Value Source: NWS Daily Summary

Daily Weather History Graph

Daily Weather History Graph

Search for Another Location

Airport:

Trip Planner

Search our weather history database for the weather conditions in past years. The results will help you decide how hot, cold, wet, or windy it might be!

Date:

Astronomy

Jan. 07, 2013 Rise Set
Actual Time 7:55 AM EST 5:23 PM EST
Civil Twilight 7:25 AM EST 5:54 PM EST
Nautical Twilight 6:51 AM EST 6:28 PM EST
Astronomical Twilight 6:19 AM EST 7:00 PM EST
Moon 3:18 AM EST (1/7) 1:34 PM EST (1/7)
Length of Visible Light 10h 28m
Length of Day
9h 27m
Waning Crescent, 23% of the Moon is Illuminated
Jan 7
Waning Crescent
Jan 11
New
Jan 18
First Quarter
Jan 26
Full
Feb 3
Last Quarter

Hourly Weather History & Observations

Time (EST) Temp. Windchill Dew Point Humidity Pressure Visibility Wind Dir Wind Speed Gust Speed Precip Events Conditions
12:34 AM 27.9 °F 19.8 °F 23.5 °F 84% 30.30 in 7.0 mi WNW 8.1 mph - N/A   Overcast
12:54 AM 28.0 °F 20.0 °F 23.5 °F 83% 30.30 in 7.0 mi WNW 8.1 mph - N/A   Overcast
1:14 AM 28.0 °F 20.0 °F 23.9 °F 84% 30.31 in 7.0 mi West 8.1 mph - N/A   Overcast
1:54 AM 28.2 °F 20.2 °F 23.7 °F 83% 30.32 in 7.0 mi WNW 8.1 mph - N/A   Overcast
2:14 AM 28.2 °F 21.0 °F 23.7 °F 83% 30.32 in 7.0 mi WNW 6.9 mph - N/A   Overcast
2:34 AM 28.2 °F 23.1 °F 23.7 °F 83% 30.32 in 7.0 mi West 4.6 mph - N/A   Overcast
2:54 AM 27.9 °F 20.6 °F 23.7 °F 84% 30.32 in 7.0 mi WNW 6.9 mph - N/A   Overcast
3:14 AM 27.9 °F 20.6 °F 23.7 °F 84% 30.33 in 7.0 mi West 6.9 mph - N/A   Overcast
3:34 AM 27.9 °F 20.6 °F 23.9 °F 85% 30.34 in 7.0 mi West 6.9 mph - N/A   Overcast
3:54 AM 28.0 °F 21.7 °F 23.9 °F 84% 30.35 in 7.0 mi West 5.8 mph - N/A   Overcast
4:14 AM 27.7 °F 22.4 °F 23.7 °F 85% 30.35 in 7.0 mi West 4.6 mph - N/A   Overcast
4:34 AM 27.5 °F 22.2 °F 23.7 °F 86% 30.35 in 7.0 mi WNW 4.6 mph - N/A   Overcast
4:54 AM 27.3 °F 22.0 °F 23.5 °F 86% 30.36 in 7.0 mi West 4.6 mph - N/A   Overcast
5:14 AM 26.4 °F 22.4 °F 22.5 °F 85% 30.35 in 7.0 mi SW 3.5 mph - N/A   Overcast
5:34 AM 24.8 °F 19.1 °F 21.6 °F 87% 30.36 in 7.0 mi West 4.6 mph - N/A   Scattered Clouds
5:54 AM 23.9 °F - 21.7 °F 91% 30.36 in 5.0 mi Calm Calm - N/A   Scattered Clouds
6:14 AM 21.6 °F 16.8 °F 19.9 °F 93% 30.37 in 3.0 mi West 3.5 mph - N/A   Clear
6:34 AM 21.6 °F - 20.1 °F 94% 30.38 in 3.0 mi Calm Calm - N/A   Clear
6:54 AM 15.4 °F 6.8 °F 13.3 °F 91% 30.39 in 2.5 mi WSW 5.8 mph - N/A   Clear
7:14 AM 16.9 °F 9.8 °F 15.1 °F 93% 30.40 in 2.5 mi WSW 4.6 mph - N/A   Clear
7:34 AM 16.2 °F 7.6 °F 14.0 °F 91% 30.40 in 2.5 mi WSW 5.8 mph - N/A   Clear
7:54 AM 16.7 °F 7.2 °F 14.9 °F 93% 30.41 in 1.5 mi WSW 6.9 mph - N/A   Unknown
8:14 AM 16.2 °F 7.6 °F 14.2 °F 92% 30.42 in 1.2 mi WSW 5.8 mph - N/A   Unknown
8:34 AM 16.9 °F 9.8 °F 14.7 °F 91% 30.43 in 1.5 mi WSW 4.6 mph - N/A   Unknown
8:54 AM 15.3 °F 7.9 °F 13.1 °F 91% 30.43 in 1.2 mi SW 4.6 mph - N/A   Scattered Clouds
9:14 AM 15.4 °F 5.6 °F 13.1 °F 90% 30.43 in 1.8 mi SW 6.9 mph - N/A   Unknown
9:34 AM 17.1 °F 10.0 °F 15.1 °F 92% 30.44 in 1.5 mi WSW 4.6 mph - N/A   Mostly Cloudy
9:54 AM 18.5 °F 10.4 °F 16.7 °F 93% 30.44 in 1.8 mi SW 5.8 mph - N/A   Overcast
10:14 AM 22.8 °F 14.5 °F 21.0 °F 93% 30.45 in 2.5 mi SW 6.9 mph - N/A   Scattered Clouds
10:34 AM 24.8 °F 16.1 °F 23.0 °F 93% 30.45 in 3.0 mi SW 8.1 mph - N/A   Clear
10:54 AM 26.4 °F 18.9 °F 23.5 °F 89% 30.45 in 4.0 mi SW 6.9 mph - N/A   Clear
11:14 AM 28.4 °F 23.3 °F 23.0 °F 80% 30.44 in 4.0 mi SSW 4.6 mph - N/A   Clear
11:34 AM 30.0 °F 25.2 °F 23.5 °F 77% 30.43 in 5.0 mi SSW 4.6 mph - N/A   Clear
11:54 AM 31.5 °F 24.9 °F 23.4 °F 72% 30.41 in 7.0 mi SW 6.9 mph - N/A   Clear
12:14 PM 32.0 °F 24.2 °F 22.6 °F 68% 30.40 in 10.0 mi SSW 9.2 mph - N/A   Clear
12:34 PM 32.2 °F 23.8 °F 22.5 °F 67% 30.39 in 10.0 mi SSW 10.4 mph - N/A   Clear
12:54 PM 32.4 °F 23.5 °F 22.3 °F 66% 30.39 in 10.0 mi SSW 11.5 mph - N/A   Clear
1:14 PM 32.5 °F 24.2 °F 22.6 °F 67% 30.38 in 10.0 mi SSW 10.4 mph - N/A   Clear
1:34 PM 32.5 °F 23.7 °F 22.5 °F 66% 30.37 in 10.0 mi SSW 11.5 mph - N/A   Clear
2:14 PM 32.7 °F 23.4 °F 22.6 °F 66% 30.36 in 10.0 mi South 12.7 mph 18.4 mph N/A   Clear
2:34 PM 32.5 °F 23.7 °F 22.1 °F 65% 30.35 in 10.0 mi SSW 11.5 mph - N/A   Clear
2:54 PM 32.5 °F 24.2 °F 22.3 °F 66% 30.35 in 10.0 mi SSW 10.4 mph - N/A   Clear
3:14 PM 32.2 °F 23.2 °F 23.0 °F 69% 30.35 in 10.0 mi SW 11.5 mph - N/A   Clear
3:34 PM 32.0 °F 23.0 °F 23.4 °F 70% 30.35 in 10.0 mi SSW 11.5 mph - N/A   Clear
3:54 PM 32.0 °F 23.6 °F 23.5 °F 71% 30.34 in 7.0 mi SSW 10.4 mph - N/A   Clear
4:14 PM 32.0 °F 23.6 °F 23.4 °F 70% 30.34 in 10.0 mi SSW 10.4 mph - N/A   Clear
4:34 PM 31.6 °F 23.7 °F 23.0 °F 70% 30.33 in 10.0 mi SSW 9.2 mph - N/A   Clear
4:54 PM 30.7 °F 23.3 °F 22.8 °F 72% 30.32 in 10.0 mi SSW 8.1 mph - N/A   Clear
5:14 PM 29.3 °F 20.2 °F 22.1 °F 75% 30.31 in 10.0 mi South 10.4 mph - N/A   Clear
5:34 PM 28.6 °F 19.3 °F 21.9 °F 76% 30.30 in 10.0 mi South 10.4 mph - N/A   Clear
6:14 PM 26.8 °F 19.3 °F 21.0 °F 79% 30.30 in 10.0 mi South 6.9 mph - N/A   Clear
6:34 PM 25.9 °F 18.2 °F 20.5 °F 80% 30.29 in 10.0 mi South 6.9 mph - N/A   Clear
6:54 PM 25.5 °F 18.7 °F 19.9 °F 79% 30.29 in 10.0 mi South 5.8 mph - N/A   Clear
7:14 PM 25.2 °F 18.3 °F 20.3 °F 82% 30.28 in 7.0 mi South 5.8 mph - N/A   Clear
7:35 PM 24.3 °F 18.4 °F 19.4 °F 82% 30.28 in 7.0 mi SSW 4.6 mph - N/A   Clear
7:54 PM 24.1 °F 18.2 °F 21.2 °F 89% 30.28 in 7.0 mi SW 4.6 mph - N/A   Clear
8:14 PM 17.8 °F 10.9 °F 13.3 °F 83% 30.28 in 5.0 mi SW 4.6 mph - N/A   Clear
8:35 PM 21.9 °F 15.7 °F 20.5 °F 94% 30.28 in 5.0 mi SW 4.6 mph - N/A   Clear
8:54 PM 19.4 °F - 17.6 °F 93% 30.27 in 5.0 mi Calm Calm - N/A   Clear
9:14 PM 20.1 °F - 18.3 °F 93% 30.27 in 5.0 mi Calm Calm - N/A   Clear
9:35 PM 17.4 °F - 14.0 °F 86% 30.27 in 4.0 mi Calm Calm - N/A   Clear
9:54 PM 16.2 °F - 14.2 °F 92% 30.25 in 1.5 mi Calm Calm - N/A   Unknown
10:34 PM 17.6 °F - 15.1 °F 90% 30.25 in 4.0 mi Calm Calm - N/A   Clear
10:54 PM 13.5 °F 5.8 °F 10.9 °F 90% 30.25 in 2.5 mi SSW 4.6 mph - N/A   Clear
11:14 PM 11.5 °F 0.9 °F 8.8 °F 89% 30.24 in 3.0 mi South 6.9 mph - N/A   Clear
11:54 PM 21.7 °F 11.5 °F 19.4 °F 91% 30.22 in 5.0 mi South 9.2 mph - N/A   Clear